www.pogodaiklimat.ru

Погода и климат >> Архив погоды >> Россия >> Еврейская автономная область >> Биробиджан


ПОГОДА в Биробиджане

  • Прогноз погоды в Биробиджане
  • Монитор погоды в Биробиджане

АРХИВ ПОГОДЫ в Биробиджане

Время (UTC), дата Ветер
(напр.,м/с)
 
Видим.   Явления Облачность Т
(С)
Тd
(С)
f
(%)
Тe
(С)
Тes
(С)
Комфортность P
(гПа)
Po
(гПа)
Тmin
(С)
Tmax
(С)
R
(мм)
R24
(мм)
S
(см)
09 13.09 ЮВ 2 50 км 9/8 600 м
[Cb cap Ac trans]
+18.1 +12.7 71 +19 +19 1007.4 998.3 +20.1
12 13.09 Ю 1 10 км слаб. ливневой дождь 10/8 600 м
[Cb cap Ac As]
+16.7 +13.8 83 +18 +18 1005.4 996.1
15 13.09 штиль 0 4000 м слаб. дождь 10/0
[As op]
+15.9 +15.2 96 +16 +16 1003.5 994.1
18 13.09 штиль 0 4000 м слаб. дождь 10/0
[As op]
+13.5 +12.9 96 +13 +13 1003.9 994.4
21 13.09 СЗ 1 50 км {дождь} 1/0
[Ac trans]
+10.2 +8.9 92 +10 +10 1007.6 998.0 +10.2 15
00 14.09 З 1 50 км {дождь} ясно +15.5 +8.9 65 +16 +22 1009.5 1000.0 +10.2
03 14.09 З 2 50 км ясно +20.6 +7.2 42 +22 +33 комфорт 1009.3 1000.0
06 14.09 З 4 50 км 1/1 1000 м
[Cu med, cong]
+21.2 +6.2 38 +22 +25 комфорт 1009.0 999.7
09 14.09 ЮЗ 2 50 км 1/1 1000 м
[Sc diur, vesp]
+18.8 +10.0 57 +20 +20 1009.8 1000.4 +21.9
12 14.09 ЮЗ 1 50 км 1/1 1000 м
[Sc]
+11.2 +9.6 90 +11 +11 1011.8 1002.2
15 14.09 штиль 0 50 км ясно +9.4 +8.8 96 +8 +8 1012.3 1002.6
18 14.09 В 1 50 км ясно +7.6 +7.1 97 +7 +7 1012.3 1002.5
21 14.09 штиль 0 20 км туман поземный 1/0
[Ac trans]
+6.8 +6.4 97 +6 +6 1012.9 1003.1 +6.7
00 15.09 Ю 2 50 км 1/0
[Ac trans]
+16.0 +11.5 75 +16 +21 1012.1 1002.6
03 15.09 ЮЗ 4 50 км 9/1 1000 м
[Cu hum Cs]
+21.0 +10.0 49 +23 +28 комфорт 1010.5 1001.2
06 15.09 Ю 4 50 км 8/1 1000 м
[Cu hum Ac lent Ci fib]
+22.0 +10.1 47 +24 +26 комфорт 1008.5 999.2
09 15.09 Ю 2 50 км 3/0
[Ac cuf Ci fib]
+18.3 +10.1 59 +19 +19 1007.6 998.3 +22.8
12 15.09 С 1 50 км 9/0
[Cc]
+12.0 +10.3 89 +12 +12 1007.1 997.5
15 15.09 З 3 50 км 10/4 600 м
[Cb cap As trans]
+14.3 +11.2 82 +13 +13 1007.6 998.1
18 15.09 Ю 1 50 км 10/6 600 м
[Cb cap As trans]
+11.5 +10.2 92 +11 +11 1007.4 997.8
21 15.09 С 1 50 км {ливн. осадки} 3/3 600 м
[Cb cap]
+9.5 +8.9 96 +9 +9 1009.3 999.6 +9.5 0.4
00 16.09 З 2 50 км {ливн. осадки} ясно +13.1 +1.7 46 +13 +17 1011.6 1002.0
03 16.09 З 5 50 км ясно +15.4 -0.5 34 +14 +20 1011.4 1001.9
06 16.09 З 6-11
{11}
50 км ясно +15.5 -2.3 29 +14 +16 1011.2 1001.7
09 16.09 З 2
{10}
50 км ясно +13.1 -0.4 39 +13 +13 1012.4 1002.8 +16.4
12 16.09 штиль 0 50 км ясно +4.9 +3.1 88 +4 +4 1014.2 1004.3
15 16.09 штиль 0 50 км ясно +3.1 +2.2 94 +2 +2 1015.2 1005.3
18 16.09 З 1 50 км ясно +2.4 +2.0 97 +1 +1 1015.7 1005.7
21 16.09 В 1 50 км ясно +1.1 +0.7 97 -1 -1 1016.6 1006.5 +1.1
00 17.09 С 1 50 км ясно +9.5 +3.9 68 +9 +15 1016.5 1006.7 +1.1
03 17.09 Ю 3 50 км ясно +17.0 +4.0 42 +17 +25 1014.4 1004.9
06 17.09 Ю 3 50 км 3/0
[Ac lent Ci fib]
+18.3 +2.7 35 +19 +22 1012.0 1002.5
09 17.09 ЮВ 2 50 км 10/8 600 м
[Cb cap Ac trans Ci fib]
+13.9 +3.8 51 +14 +14 1010.9 1001.4 +18.4
12 17.09 ЮВ 1 50 км 10/3 600 м
[Cb cap Ac As]
+12.0 +6.5 69 +12 +12 1009.7 1000.1
15 17.09 В 2 50 км 9/0
[Ac trans]
+11.1 +6.5 73 +10 +10 1007.0 997.4
18 17.09 В 2 50 км 9/4 600 м
[Cb cap Ac trans]
+9.8 +7.1 83 +8 +8 1003.5 993.9
21 17.09 В 1 20 км 10/8 600 м
[Cb cap As op]
+9.2 +6.4 83 +9 +9 1000.6 991.0 +9.1
00 18.09 З 4-12
{12}
4000 м слаб. дождь 10/10 300 м
[Frnb Ns]
+5.0 +3.1 88 +1 +1 1001.2 991.5 +5.0
03 18.09 З 7-11
{12}
20 км слаб. дождь {морось} 10/10 300 м
[Frnb Ns]
+6.1 +2.2 76 +1 +1 1004.3 994.5
06 18.09 З 6
{12}
20 км {дождь, морось} 10/10 300 м
[Cb cap]
+6.9 +2.7 75 +3 +3 1005.6 995.9
09 18.09 З 4
{13}
20 км 10/4 600 м
[Cb cap As op]
+6.1 +1.8 74 +2 +2 1006.7 996.9 +9.2 7
12 18.09 З 5-11
{12}
20 км 10/6 600 м
[Cb cap As op]
+6.4 +1.0 68 +2 +2 1005.5 995.8
15 18.09 З 4
{11}
20 км 10/6 600 м
[Cb cap As op]
+6.1 +1.4 72 +3 +3 1003.5 993.8
18 18.09 З 2 20 км 10/10 600 м
[Cb cap]
+5.9 +1.8 75 +4 +4 1002.1 992.4
21 18.09 СЗ 2 50 км 10/5 600 м
[Cb cap As trans]
+6.0 +1.8 74 +4 +4 1002.0 992.2 +5.4
00 19.09 СЗ 3 50 км 10/4 600 м
[Cb cap Ac As]
+8.8 +3.4 69 +7 +7 1003.4 993.8
03 19.09 СЗ 4
{11}
50 км 10/1 1000 м
[Sc diur, vesp Ac trans Cc]
+13.5 +5.1 57 +12 +15 1005.4 995.9
06 19.09 СЗ 3 50 км 9/4 600 м
[Cb cap Ac trans Ci sp]
+13.8 +5.1 56 +13 +14 1007.5 998.0
09 19.09 СЗ 2 50 км 9/1 1000 м
[Sc diur, vesp Ac cast Cc]
+11.1 +4.3 63 +10 +10 1010.4 1000.8 +15.2
12 19.09 З 2 50 км 6/0
[Ac lent Ci fib]
+8.2 +4.3 76 +6 +6 1012.0 1002.3
15 19.09 СЗ 1 50 км ясно +7.6 +4.3 80 +7 +7 1013.3 1003.6
18 19.09 СЗ 2 50 км ясно +6.2 +3.9 85 +4 +4 1013.7 1003.9
21 19.09 ЮВ 1 50 км ясно +4.3 +2.9 91 +3 +3 1015.2 1005.2 +3.5
00 20.09 Ю 1 50 км ясно +11.6 +6.3 70 +12 +17 1016.7 1007.1 +3.4
03 20.09 ЮЗ 1 50 км 3/1 1000 м
[Cu hum Ac lent Ci fib]
+16.1 +6.2 52 +17 +26 1016.8 1007.3

 

Местоположение метеостанции Биробиджан (Еврейская автономная область, Россия): широта 48.73 долгота 132.90 высота над уровнем моря 77 м.

В архиве по умолчанию представлена погода в Биробиджане за последнюю неделю. Архивные данные за месяц целиком и за предыдущие месяцы, начиная с января 2011 года, Вы можете получить, выбрав интересующий диапазон дат из раскрывающегося списка и нажав кнопку "Ввод!".


*Определитесь, кто Вы:
робот инопланетянин человек

Внимание! Время в таблицах - всемирное. Для получения местного времени необходимо прибавить поправку, которая равна 10 ч.

Смотрите также архив погоды в соседних городах и на ближайших метеорологических станциях:

Погода в Смидовиче (Еврейская автономная область, Россия) (68 км)
Погода в Урми (Хабаровский край, Россия) (78 км)
Погода в Ленинское (Еврейская автономная область, Россия) (90 км)
Погода в Хабаровск Центре (Еврейская автономная область, Россия) (91 км)
Погода в Биджане (Еврейская автономная область, Россия) (115 км)
Погода в Облучье (Еврейская автономная область, Россия) (142 км)
Погода в Бычихе (Хабаровский край, Россия) (149 км)
Погода в Верховье Урми (Хабаровский край, Россия) (153 км)
Погода на Хабаровск Мосту (Хабаровский край, Россия) (157 км)
Погода в Хабаровске АМС (Хабаровский край, Россия) (159 км)

Пояснения к столбцам:

Ветер - указаны скорость ветра в м/с - средняя за 10 мин, порывы в срок и между сроками (в фигурных скобках) и направление, откуда дует ветер: С - северный, СВ - северо-восточный, В - восточный, ЮВ - юго-восточный, Ю - южный, ЮЗ - юго-западный, З - западный, СЗ - северо-западный.
Видимость - горизонтальная дальность видимости в метрах или километрах. При видимости от 1 до 10 км при отсутствии осадков обычно наблюдается дымка, при ухудшении видимости до 1 км и менее - туман. В сухую погоду видимость может ухудшаться дымом, пылью или мглою.
Явления - указаны атмосферные явления, наблюдавшиеся в срок или в последний час перед сроком; фигурными скобками обозначены явления, наблюдавшиеся между сроками (за 1-3 часа до срока); квадратными скобками обозначены град или гололедные отложения с указанием их диаметра в мм.
Облачность - указаны через наклонную черту общая и нижняя облачность в баллах и высота нижней границы облаков в метрах; квадратными скобками обозначены формы облаков: Ci - перистые, Cs - перисто-слоистые, Cc - перисто-кучевые, Ac - высококучевые, As - высокослоистые, Sc - слоисто-кучевые, Ns - слоисто-дождевые, Cu - кучевые, Cb - кучево-дождевые. Подробнее классификацию облаков см. в Атласе облаков (PDF).
T - Температура воздуха - температура, измеренная на высоте 2 м над землей.
Td - Температура точки росы - температура, при понижении до которой содержащийся в воздухе водяной пар достигнет насыщения.
f - Относительная влажность воздуха - влажноcть воздуха, измеренная на высоте 2 м над землей.
Te - Эффективная температура - температура, которую ощущает одетый по сезону человек в тени. Характеристика душности погоды. При расчете учитывается влияние влажности воздуха и скорости ветра на теплоощущения человека.
Tes - Эффективная температура на солнце - температура, которую ощущает человек, с поправкой на солнечный нагрев. Характеристика знойности погоды. Зависит от высоты солнца над горизонтом, облачности и скорости ветра. Ночью, в пасмурную погоду, а также при ветре 12 м/с и более поправка равна нулю.
P - Атмосферное давление - приведенное к уровню моря атмосферное давление.
Po - Атмосферное давление - измеренное на уровне метеостанции атмосферное давление.
Tmin - Минимальная температура - минимум температуры воздуха на высоте 2 м над землей.
Tmax - Максимальная температура - максимум температуры воздуха на высоте 2 м над землей.
R - Количество осадков - Количество выпавших осадков за период времени, мм. При наведении курсора мыши на число - период времени, за который выпало указанное количество осадков.
R24 - Количество осадков - Количество выпавших осадков за 24 часа, мм.
S - Снежный покров - Высота снежного покрова, см. При наведении курсора мыши на число - состояние снежного покрова и степень покрытия местности в баллах.